Hourly Data Report for October 19, 2016

All times are specified in Local Standard Time (LST). Add 1 hour to adjust for Daylight Saving Time where and when it is observed.

CLYDE RIVER A
NUNAVUT

70°29'09.000" N
68°31'01.000" W
26.50 m
2400804
71090
YCY

Download Data

Hourly Data (October 2016)
Hourly Data Report for October 19, 2016
Temp Definition
°C
Dew Point Temp Definition
°C
Rel Hum Definition
%
Wind Dir Definition
10's deg

Wind Spd Definition
km/h
Visibility Definition
km
Stn Press Definition
kPa
Hmdx Definition


Wind Chill Definition


Weather Definition


TIME
00:00 Legend Double Dagger -10.5 -17.4 58 26 17 16.1 101.12   -18 LegendNANA
01:00 Legend Double Dagger -11.5 -17.4 62 28 13 16.1 101.08   -18 LegendNANA
02:00 Legend Double Dagger -9.7 -14.3 69 27 24 16.1 101.02   -18 LegendNANA
03:00 Legend Double Dagger -8.3 -13.0 69 28 30 16.1 100.98   -17 LegendNANA
04:00 Legend Double Dagger -8.1 -12.0 74 27 32 16.1 100.91   -17 LegendNANA
05:00 Legend Double Dagger -7.5 -10.5 79 28 28 6.4 100.84   -16 Snow
06:00 Legend Double Dagger -6.8 -7.6 94 31 45 0.4 100.80   -17 Heavy Snow
07:00 Legend Double Dagger -6.4 -10.3 74 36 30 16.1 100.88   -15 LegendNANA
08:00 Legend Double Dagger -7.9 -11.9 73 35 24 16.1 100.92   -16 LegendNANA
09:00 Legend Double Dagger -6.2 -7.7 89 31 34 4.8 100.93   -15 Snow
10:00 Legend Double Dagger -6.0 -7.3 91 32 39 2.0 100.90   -15 Snow
11:00 Legend Double Dagger -6.1 -7.1 93 31 35 1.2 100.89   -15 Snow
12:00 Legend Double Dagger -5.8 -7.2 90 30 48 1.2 100.81   -16 Snow
13:00 Legend Double Dagger -6.7 -8.7 86 31 39 11.3 100.86   -16 Snow
14:00 Legend Double Dagger -5.8 -8.4 82 30 32 16.1 100.91   -14 Snow
15:00 Legend Double Dagger -6.8 -9.9 79 30 35 16.1 100.88   -16 Snow
16:00 Legend Double Dagger -6.6 -9.8 78 30 28 16.1 100.88   -15 LegendNANA
17:00 Legend Double Dagger -8.1 -11.1 79 28 15 16.1 100.91   -14 LegendNANA
18:00 Legend Double Dagger -9.8 -13.1 77 25 11 16.1 100.88   -15 LegendNANA
19:00 Legend Double Dagger -11.4 -14.6 78 25 5 16.1 100.82   -15 LegendNANA
20:00 Legend Double Dagger -13.4 -15.4 85 6 5 16.1 100.74   -17 LegendNANA
21:00 Legend Double Dagger -15.1 -17.2 84 28 8 16.1 100.68   -20 LegendNANA
22:00 Legend Double Dagger -11.6 -14.5 79 26 5 16.1 100.62   -15 LegendNANA
23:00 Legend Double Dagger -11.5 -15.6 72 25 13 16.1 100.58   -18 LegendNANA

Notes on Data Quality.

Legend

  • E = Estimated
  • M = Missing
  • NA = Not Available
  • ‡ = Partner data that is not subject to review by the National Climate Archives
Date modified: